Weather History for Dover AFB, DE

Change the Weather History Date:

Friday, December 6, 2013

  Actual Average Record
Temperature  
Mean Temperature 51 °F -  
Max Temperature 63 °F 51 °F 75 °F (1998)
Min Temperature 39 °F 32 °F 18 °F (1976)
Degree Days  
Heating Degree Days 14    
Growing Degree Days 1 (Base 50)    
Moisture  
Dew Point 51 °F    
Average Humidity 99    
Maximum Humidity 100    
Minimum Humidity 91    
Precipitation  
Precipitation 0.61 in - - ()
Sea Level Pressure  
Sea Level Pressure 30.00 in    
Wind  
Wind Speed 13 mph (NNW)    
Max Wind Speed 20 mph    
Max Gust Speed 25 mph    
Visibility 8 miles    
Events Rain    
Averages and records for this station are not official NWS values.
T = Trace of Precipitation, MM = Missing Value Source: NWS Daily Summary

Daily Weather History Graph

Daily Weather History Graph

Search for Another Location

Airport:

Trip Planner

Search our weather history database for the weather conditions in past years. The results will help you decide how hot, cold, wet, or windy it might be!

Date:

Astronomy

Dec. 06, 2013 Rise Set
Actual Time 7:06 AM EST 4:38 PM EST
Civil Twilight 6:37 AM EST 5:08 PM EST
Nautical Twilight 6:03 AM EST 5:42 PM EST
Astronomical Twilight 5:31 AM EST 6:14 PM EST
Moon 10:11 AM EST (12/6) 9:06 PM EST (12/6)
Length of Visible Light 10h 31m
Length of Day
9h 31m
Waxing Crescent, 19% of the Moon is Illuminated
Dec 6
Waxing Crescent
Dec 9
First Quarter
Dec 17
Full
Dec 25
Last Quarter
Jan 1
New

Hourly Weather History & Observations

Time (EST) Temp. Windchill Dew Point Humidity Pressure Visibility Wind Dir Wind Speed Gust Speed Precip Events Conditions
12:58 AM 63.3 °F - 60.6 °F 91% 29.95 in 10.0 mi South 16.1 mph - N/A   Overcast
1:43 AM 62.6 °F - 60.8 °F 94% 29.93 in 10.0 mi South 15.0 mph - N/A   Mostly Cloudy
1:48 AM 62.6 °F - 60.8 °F 94% 29.94 in 10.0 mi South 15.0 mph - N/A   Mostly Cloudy
1:58 AM 62.6 °F - 61.2 °F 95% 29.94 in 10.0 mi South 15.0 mph - N/A   Mostly Cloudy
2:18 AM 62.6 °F - 60.8 °F 94% 29.93 in 10.0 mi SSW 11.5 mph - N/A   Mostly Cloudy
2:33 AM 62.6 °F - 60.8 °F 94% 29.93 in 10.0 mi SSW 12.7 mph - N/A   Mostly Cloudy
2:37 AM 62.6 °F - 60.8 °F 94% 29.93 in 10.0 mi SSW 11.5 mph - N/A Rain Light Rain
2:52 AM 62.6 °F - 60.8 °F 94% 29.92 in 10.0 mi South 11.5 mph - N/A Rain Light Rain
2:58 AM 61.9 °F - 60.8 °F 96% 29.93 in 10.0 mi South 12.7 mph - 0.00 in Rain Light Rain
3:01 AM 62.6 °F - 60.8 °F 94% 29.92 in 10.0 mi South 10.4 mph - N/A   Overcast
3:09 AM 62.6 °F - 60.8 °F 94% 29.91 in 10.0 mi South 10.4 mph - N/A Rain Light Rain
3:19 AM 62.6 °F - 60.8 °F 94% 29.91 in 10.0 mi South 12.7 mph - N/A   Light Drizzle
3:21 AM 62.6 °F - 60.8 °F 94% 29.90 in 10.0 mi South 11.5 mph - N/A   Mostly Cloudy
3:26 AM 62.6 °F - 62.6 °F 100% 29.91 in 10.0 mi South 11.5 mph - N/A Rain Light Rain
3:36 AM 62.6 °F - 62.6 °F 100% 29.90 in 10.0 mi South 13.8 mph - N/A Rain Light Rain
3:56 AM 62.6 °F - 62.6 °F 100% 29.90 in 8.0 mi South 17.3 mph - N/A Rain Light Rain
3:58 AM 62.6 °F - 62.4 °F 99% 29.90 in 8.0 mi South 19.6 mph - 0.03 in Rain Light Rain
4:03 AM 62.6 °F - 62.6 °F 100% 29.89 in 9.0 mi South 16.1 mph - N/A Rain Light Rain
4:08 AM 62.6 °F - 62.6 °F 100% 29.90 in 10.0 mi SSW 16.1 mph - N/A Rain Light Rain
4:10 AM 62.6 °F - 62.6 °F 100% 29.90 in 10.0 mi SSW 16.1 mph - N/A   Mostly Cloudy
4:23 AM 62.6 °F - 62.6 °F 100% 29.90 in 10.0 mi SSW 15.0 mph - N/A   Light Drizzle
4:51 AM 62.6 °F - 62.6 °F 100% 29.90 in 10.0 mi South 15.0 mph - N/A   Overcast
4:58 AM 62.6 °F - 62.4 °F 99% 29.91 in 10.0 mi SSW 15.0 mph - 0.01 in   Overcast
5:03 AM 62.6 °F - 62.6 °F 100% 29.91 in 10.0 mi SSW 16.1 mph - N/A   Overcast
5:18 AM 62.6 °F - 62.6 °F 100% 29.90 in 10.0 mi South 16.1 mph 25.3 mph N/A   Overcast
5:58 AM 62.6 °F - 62.4 °F 99% 29.92 in 10.0 mi South 12.7 mph - N/A   Overcast
6:48 AM 62.6 °F - 62.6 °F 100% 29.92 in 10.0 mi South 13.8 mph - N/A   Overcast
6:58 AM 62.6 °F - 62.4 °F 99% 29.93 in 10.0 mi South 11.5 mph - N/A   Overcast
7:10 AM 62.6 °F - 62.6 °F 100% 29.92 in 10.0 mi SSW 12.7 mph - N/A Rain Rain
7:20 AM 62.6 °F - 62.6 °F 100% 29.92 in 9.0 mi South 13.8 mph - N/A Rain Light Rain
7:22 AM 62.6 °F - 62.6 °F 100% 29.92 in 10.0 mi South 11.5 mph - N/A   Overcast
7:26 AM 62.6 °F - 62.6 °F 100% 29.92 in 10.0 mi South 12.7 mph - N/A Rain Light Rain
7:35 AM 62.6 °F - 62.6 °F 100% 29.93 in 10.0 mi South 13.8 mph - N/A   Overcast
7:40 AM 62.6 °F - 62.6 °F 100% 29.93 in 10.0 mi South 10.4 mph - N/A   Overcast
7:50 AM 62.6 °F - 62.6 °F 100% 29.93 in 10.0 mi South 10.4 mph - N/A   Overcast
7:58 AM 63.0 °F - 63.0 °F 100% 29.94 in 10.0 mi South 10.4 mph - 0.02 in   Overcast
8:58 AM 63.9 °F - 63.5 °F 99% 29.95 in 8.0 mi SSW 15.0 mph - N/A   Overcast
9:23 AM 62.6 °F - 62.6 °F 100% 29.95 in 5.0 mi West 11.5 mph - N/A   Overcast
9:28 AM 62.6 °F - 62.6 °F 100% 29.96 in 4.0 mi West 8.1 mph - N/A   Overcast
9:29 AM 62.6 °F - 62.6 °F 100% 29.97 in 3.0 mi West 8.1 mph - N/A   Light Drizzle
9:49 AM 60.8 °F - 60.8 °F 100% 29.99 in 2.5 mi NNW 17.3 mph - N/A Rain Light Rain
9:53 AM 59.0 °F - 57.2 °F 94% 29.98 in 4.0 mi NNW 17.3 mph - N/A   Overcast
9:58 AM 57.2 °F - 57.2 °F 100% 30.00 in 4.0 mi NNW 19.6 mph - 0.02 in   Overcast
10:02 AM 55.4 °F - 55.4 °F 100% 30.00 in 4.0 mi NNW 19.6 mph - N/A Rain Light Rain
10:21 AM 53.6 °F - 53.6 °F 100% 30.01 in 8.0 mi NNW 17.3 mph - N/A   Overcast
10:33 AM 51.8 °F - 51.8 °F 100% 30.02 in 7.0 mi NNW 18.4 mph - N/A   Light Drizzle
10:38 AM 51.8 °F - 51.8 °F 100% 30.03 in 6.0 mi NNW 19.6 mph - N/A   Light Drizzle
10:48 AM 51.8 °F - 51.8 °F 100% 30.03 in 6.0 mi NNW 17.3 mph - N/A   Light Drizzle
10:58 AM 51.4 °F - 51.1 °F 99% 30.05 in 6.0 mi NNW 17.3 mph 24.2 mph 0.00 in   Light Drizzle
10:59 AM 51.8 °F - 51.8 °F 100% 30.04 in 7.0 mi NNW 15.0 mph - N/A   Overcast
11:24 AM 50.0 °F - 50.0 °F 100% 30.03 in 8.0 mi NW 16.1 mph - N/A   Overcast
11:35 AM 50.0 °F - 50.0 °F 100% 30.02 in 10.0 mi NNW 13.8 mph - N/A Rain Light Rain
11:40 AM 50.0 °F - 50.0 °F 100% 30.01 in 10.0 mi North 15.0 mph - N/A Rain Light Rain
11:58 AM 49.6 °F - 49.5 °F 99% 30.02 in 10.0 mi NNW 15.0 mph - 0.00 in Rain Light Rain
12:13 PM 50.0 °F - 50.0 °F 100% 30.01 in 10.0 mi NNW 12.7 mph - N/A Rain Light Rain
12:58 PM 49.1 °F - 48.4 °F 97% 30.02 in 10.0 mi NNW 12.7 mph - 0.01 in Rain Light Rain
1:33 PM 48.2 °F - 48.2 °F 100% 30.01 in 4.0 mi NNW 10.4 mph - N/A Rain Heavy Rain
1:58 PM 48.2 °F - 47.8 °F 99% 30.01 in 3.0 mi North 8.1 mph - 0.21 in Rain Heavy Rain
2:53 PM 48.2 °F - 48.2 °F 100% 30.01 in 10.0 mi NW 8.1 mph - N/A Rain Light Rain
2:58 PM 47.8 °F - 47.7 °F 99% 30.02 in 10.0 mi NW 8.1 mph - 0.09 in Rain Light Rain
3:02 PM 48.2 °F - 48.2 °F 100% 30.02 in 10.0 mi NW 8.1 mph - N/A   Overcast
3:22 PM 48.2 °F - 46.4 °F 93% 30.02 in 10.0 mi NNW 10.4 mph - N/A   Overcast
3:39 PM 48.2 °F - 46.4 °F 93% 30.02 in 10.0 mi North 11.5 mph - N/A   Light Drizzle
3:49 PM 46.4 °F 41.5 °F 46.4 °F 100% 30.03 in 9.0 mi NNW 10.4 mph - N/A Rain Light Rain
3:58 PM 47.1 °F - 46.9 °F 99% 30.04 in 9.0 mi North 11.5 mph - 0.00 in Rain Light Rain
4:13 PM 46.4 °F 42.4 °F 46.4 °F 100% 30.02 in 2.5 mi North 8.1 mph - N/A Rain Light Rain
4:23 PM 46.4 °F 42.4 °F 46.4 °F 100% 30.02 in 3.0 mi North 8.1 mph - N/A Rain Light Rain
4:34 PM 46.4 °F 41.1 °F 46.4 °F 100% 30.01 in 7.0 mi NNE 11.5 mph - N/A   Overcast
4:58 PM 46.4 °F 41.1 °F 46.2 °F 99% 30.03 in 10.0 mi North 11.5 mph - 0.01 in   Overcast
5:08 PM 46.4 °F 41.1 °F 46.4 °F 100% 30.02 in 10.0 mi North 11.5 mph - N/A   Overcast
5:12 PM 46.4 °F 41.5 °F 46.4 °F 100% 30.02 in 10.0 mi North 10.4 mph - N/A   Light Drizzle
5:22 PM 46.4 °F 41.1 °F 46.4 °F 100% 30.03 in 10.0 mi North 11.5 mph - N/A Rain Light Rain
5:27 PM 46.4 °F 41.1 °F 46.4 °F 100% 30.03 in 8.0 mi North 11.5 mph - N/A Rain Light Rain
5:32 PM 46.4 °F 40.7 °F 46.4 °F 100% 30.03 in 6.0 mi North 12.7 mph - N/A Rain Light Rain
5:34 PM 46.4 °F 41.5 °F 46.4 °F 100% 30.03 in 5.0 mi North 10.4 mph - N/A   Overcast
5:39 PM 46.4 °F 41.5 °F 46.4 °F 100% 30.03 in 4.0 mi North 10.4 mph - N/A   Overcast
5:44 PM 46.4 °F 41.5 °F 46.4 °F 100% 30.03 in 4.0 mi North 10.4 mph - N/A   Overcast
5:49 PM 46.4 °F 42.4 °F 46.4 °F 100% 30.03 in 4.0 mi North 8.1 mph - N/A   Overcast
5:55 PM 46.4 °F 42.4 °F 46.4 °F 100% 30.04 in 5.0 mi North 8.1 mph - N/A Rain Light Rain
5:58 PM 46.0 °F 41.9 °F 45.9 °F 99% 30.05 in 5.0 mi North 8.1 mph - 0.02 in Rain Light Rain
6:03 PM 46.4 °F 41.9 °F 46.4 °F 100% 30.04 in 4.0 mi North 9.2 mph - N/A Rain Light Rain
6:18 PM 46.4 °F 40.7 °F 44.6 °F 93% 30.04 in 7.0 mi NE 12.7 mph - N/A Rain Light Rain
6:23 PM 44.6 °F 38.4 °F 44.6 °F 100% 30.04 in 9.0 mi NNE 12.7 mph - N/A Rain Light Rain
6:38 PM 44.6 °F 37.8 °F 44.6 °F 100% 30.05 in 10.0 mi NNE 15.0 mph - N/A Rain Light Rain
6:43 PM 44.6 °F 38.4 °F 42.8 °F 93% 30.06 in 10.0 mi North 12.7 mph - N/A Rain Light Rain
6:58 PM 43.9 °F 38.3 °F 43.7 °F 99% 30.05 in 10.0 mi NNE 10.4 mph - 0.02 in Rain Light Rain
7:03 PM 44.6 °F 38.8 °F 42.8 °F 93% 30.05 in 10.0 mi NNE 11.5 mph - N/A Rain Light Rain
7:08 PM 44.6 °F 39.7 °F 42.8 °F 93% 30.05 in 9.0 mi NNE 9.2 mph - N/A Rain Light Rain
7:13 PM 44.6 °F 39.2 °F 42.8 °F 93% 30.05 in 7.0 mi NNE 10.4 mph - N/A Rain Light Rain
7:18 PM 44.6 °F 39.2 °F 42.8 °F 93% 30.05 in 5.0 mi NNE 10.4 mph - N/A Rain Light Rain
7:28 PM 44.6 °F 38.8 °F 42.8 °F 93% 30.07 in 5.0 mi North 11.5 mph - N/A   Overcast
7:53 PM 42.8 °F 35.8 °F 42.8 °F 100% 30.07 in 6.0 mi North 13.8 mph 21.9 mph N/A Rain Light Rain
7:58 PM 43.5 °F 36.7 °F 43.3 °F 99% 30.08 in 6.0 mi North 13.8 mph 21.9 mph 0.06 in Rain Light Rain
8:43 PM 39.2 °F 29.8 °F 39.2 °F 100% 30.10 in 10.0 mi North 18.4 mph - N/A Rain Light Rain
8:58 PM 39.7 °F 31.9 °F 39.4 °F 99% 30.09 in 10.0 mi North 13.8 mph - 0.01 in Rain Light Rain
9:13 PM 39.2 °F 31.2 °F 39.2 °F 100% 30.07 in 10.0 mi North 13.8 mph 21.9 mph N/A   Overcast
9:17 PM 39.2 °F 31.2 °F 39.2 °F 100% 30.07 in 10.0 mi North 13.8 mph 21.9 mph N/A Rain Light Rain
9:22 PM 39.2 °F 30.8 °F 39.2 °F 100% 30.08 in 10.0 mi North 15.0 mph - N/A Rain Light Rain
9:35 PM 39.2 °F 31.6 °F 39.2 °F 100% 30.08 in 10.0 mi North 12.7 mph - N/A   Overcast
9:58 PM 39.6 °F 31.0 °F 39.4 °F 99% 30.11 in 10.0 mi North 16.1 mph - 0.01 in   Overcast
9:59 PM 39.2 °F 30.5 °F 39.2 °F 100% 30.10 in 10.0 mi North 16.1 mph - N/A Rain Light Rain
10:04 PM 39.2 °F 30.2 °F 39.2 °F 100% 30.10 in 9.0 mi North 17.3 mph - N/A Rain Light Rain
10:09 PM 39.2 °F 30.8 °F 39.2 °F 100% 30.09 in 7.0 mi North 15.0 mph - N/A Rain Light Rain
10:14 PM 39.2 °F 31.6 °F 39.2 °F 100% 30.08 in 6.0 mi North 12.7 mph - N/A Rain Light Rain
10:34 PM 39.2 °F 31.6 °F 39.2 °F 100% 30.08 in 6.0 mi North 12.7 mph - N/A Rain Light Rain
10:58 PM 39.4 °F 30.7 °F 39.2 °F 99% 30.12 in 7.0 mi NNW 16.1 mph - 0.02 in   Overcast
11:03 PM 39.2 °F 31.2 °F 39.2 °F 100% 30.12 in 8.0 mi NNW 13.8 mph - N/A   Overcast
11:13 PM 39.2 °F 32.0 °F 39.2 °F 100% 30.13 in 10.0 mi NNW 11.5 mph - N/A   Overcast
11:23 PM 39.2 °F 33.0 °F 39.2 °F 100% 30.13 in 9.0 mi NNW 9.2 mph - N/A Rain Rain
11:33 PM 39.2 °F 31.6 °F 39.2 °F 100% 30.12 in 10.0 mi NNW 12.7 mph - N/A   Overcast
11:43 PM 39.2 °F 33.6 °F 39.2 °F 100% 30.11 in 9.0 mi NNE 8.1 mph - N/A Rain Light Rain
11:48 PM 39.2 °F 33.6 °F 39.2 °F 100% 30.10 in 7.0 mi NNE 8.1 mph - N/A Rain Light Rain
11:58 PM 39.4 °F 33.2 °F 39.2 °F 99% 30.11 in 6.0 mi North 9.2 mph - 0.07 in Rain Light Rain